N609KB PADK-PADU

Flight info

Callsign N609KB
Flight time 1h 18m
Altitude 33000
Route SIYNY G8 DUT
Aircraft STAR/L-SDFGRWY/S

Departure

Time 2026-04-13 23:46
Airport Adak Airport (PADK)

Arrival

Time 2026-04-14 01:04
Airport Tom Madsen (Dutch Harbor) Airport (PADU)
Time Latitude Longitude Altitude Speed Heading
2026-04-13 23:33 51.86860 -176.64573 10 ft 0 kts 115°
2026-04-13 23:40 51.86887 -176.64550 11 ft 12 kts 325°
2026-04-13 23:40 51.86972 -176.64665 9 ft 14 kts 333°
2026-04-13 23:40 51.87064 -176.64700 9 ft 16 kts 354°
2026-04-13 23:40 51.87207 -176.64721 8 ft 19 kts 358°
2026-04-13 23:41 51.87322 -176.64684 9 ft 14 kts 14°
2026-04-13 23:41 51.87404 -176.64645 10 ft 12 kts 16°
2026-04-13 23:41 51.87508 -176.64595 11 ft 17 kts 17°
2026-04-13 23:41 51.87597 -176.64549 11 ft 11 kts 18°
2026-04-13 23:42 51.87698 -176.64499 12 ft 21 kts 17°
2026-04-13 23:42 51.87868 -176.64419 12 ft 25 kts 16°
2026-04-13 23:42 51.87982 -176.64357 12 ft 18 kts 19°
2026-04-13 23:42 51.88146 -176.64337 10 ft 25 kts 359°
2026-04-13 23:43 51.88248 -176.64333 12 ft 8 kts
2026-04-13 23:43 51.88347 -176.64261 10 ft 23 kts 49°
2026-04-13 23:43 51.88443 -176.63994 13 ft 30 kts 60°
2026-04-13 23:43 51.88546 -176.63706 14 ft 30 kts 61°
2026-04-13 23:44 51.88616 -176.63502 12 ft 30 kts 60°
2026-04-13 23:44 51.88728 -176.63171 8 ft 32 kts 61°
2026-04-13 23:44 51.88802 -176.62908 8 ft 13 kts 62°
2026-04-13 23:44 51.88808 -176.62949 8 ft 0 kts 239°
2026-04-13 23:45 51.88739 -176.63155 8 ft 40 kts 241°
2026-04-13 23:46 51.88542 -176.63721 14 ft 74 kts 240°
2026-04-13 23:46 51.88241 -176.64615 170 ft 100 kts 234°
2026-04-13 23:46 51.87941 -176.65760 660 ft 113 kts 241°
2026-04-13 23:46 51.87610 -176.66739 1474 ft 94 kts 211°
2026-04-13 23:47 51.86894 -176.66456 1701 ft 148 kts 144°
2026-04-13 23:47 51.86404 -176.64747 1858 ft 186 kts 105°
2026-04-13 23:47 51.86704 -176.62586 2248 ft 198 kts 73°
2026-04-13 23:47 51.87223 -176.60987 3711 ft 133 kts 54°
2026-04-13 23:48 51.87803 -176.59771 4168 ft 144 kts 78°
2026-04-13 23:48 51.88096 -176.58255 4752 ft 142 kts 84°
2026-04-13 23:48 51.88411 -176.56615 5180 ft 162 kts 83°
2026-04-13 23:48 51.88804 -176.54799 5711 ft 180 kts 75°
2026-04-13 23:49 51.89340 -176.52901 6340 ft 189 kts 71°
2026-04-13 23:49 51.89899 -176.50917 7006 ft 192 kts 74°
2026-04-13 23:49 51.90414 -176.48911 7702 ft 193 kts 75°
2026-04-13 23:49 51.90932 -176.46923 8424 ft 195 kts 74°
2026-04-13 23:50 51.91472 -176.44928 9231 ft 192 kts 74°
2026-04-13 23:50 51.91999 -176.42954 10024 ft 190 kts 75°
2026-04-13 23:50 51.92511 -176.40996 10736 ft 188 kts 75°
2026-04-13 23:50 51.93023 -176.39051 11443 ft 188 kts 75°
2026-04-13 23:51 51.93548 -176.37078 12136 ft 189 kts 75°
2026-04-13 23:51 51.94068 -176.35113 12804 ft 191 kts 75°
2026-04-13 23:51 51.94586 -176.33151 13463 ft 193 kts 75°
2026-04-13 23:51 51.95116 -176.31138 14072 ft 196 kts 75°
2026-04-13 23:52 51.95655 -176.29092 14633 ft 199 kts 74°
2026-04-13 23:52 51.96205 -176.27005 15203 ft 203 kts 73°
2026-04-13 23:52 51.96767 -176.24879 15759 ft 207 kts 72°
2026-04-13 23:52 51.97339 -176.22705 16355 ft 212 kts 72°
2026-04-13 23:53 51.97921 -176.20489 16976 ft 215 kts 71°
2026-04-13 23:53 51.98512 -176.18237 17612 ft 218 kts 71°
2026-04-13 23:53 51.99111 -176.15956 18217 ft 221 kts 70°
2026-04-13 23:53 51.99719 -176.13646 18740 ft 223 kts 70°
2026-04-13 23:54 52.00328 -176.11317 19280 ft 225 kts 70°
2026-04-13 23:54 52.00939 -176.08974 19817 ft 226 kts 70°
2026-04-13 23:54 52.01555 -176.06625 20347 ft 226 kts 71°
2026-04-13 23:54 52.02174 -176.04241 20800 ft 232 kts 71°
2026-04-13 23:55 52.02806 -176.01811 21330 ft 234 kts 71°
2026-04-13 23:55 52.03442 -175.99375 21893 ft 235 kts 70°
2026-04-13 23:55 52.04083 -175.96921 22408 ft 238 kts 70°
2026-04-13 23:55 52.04727 -175.94425 22909 ft 241 kts 71°
2026-04-13 23:56 52.05384 -175.91894 23417 ft 245 kts 71°
2026-04-13 23:56 52.06050 -175.89335 23863 ft 247 kts 71°
2026-04-13 23:56 52.06720 -175.86752 24313 ft 249 kts 72°
2026-04-13 23:56 52.07389 -175.84156 24761 ft 250 kts 72°
2026-04-13 23:57 52.08065 -175.81539 25196 ft 252 kts 72°
2026-04-13 23:57 52.08745 -175.78909 25635 ft 253 kts 73°
2026-04-13 23:57 52.09428 -175.76259 26074 ft 255 kts 73°
2026-04-13 23:57 52.10113 -175.73596 26517 ft 256 kts 74°
2026-04-13 23:58 52.10802 -175.70912 26968 ft 258 kts 74°
2026-04-13 23:58 52.11496 -175.68213 27405 ft 259 kts 75°
2026-04-13 23:58 52.12194 -175.65494 27858 ft 261 kts 75°
2026-04-13 23:58 52.12894 -175.62759 28295 ft 263 kts 75°
2026-04-13 23:59 52.13597 -175.60008 28727 ft 264 kts 76°
2026-04-13 23:59 52.14305 -175.57240 29141 ft 266 kts 76°
2026-04-13 23:59 52.15022 -175.54446 29514 ft 268 kts 77°
2026-04-13 23:59 52.15734 -175.51627 29908 ft 270 kts 78°
2026-04-14 00:00 52.16458 -175.48789 30257 ft 272 kts 77°
2026-04-14 00:00 52.17188 -175.45932 30583 ft 274 kts 78°
2026-04-14 00:00 52.17916 -175.43055 30892 ft 276 kts 79°
2026-04-14 00:00 52.18650 -175.40158 31197 ft 277 kts 79°
2026-04-14 00:01 52.19390 -175.37243 31513 ft 279 kts 79°
2026-04-14 00:01 52.20142 -175.34315 31803 ft 280 kts 80°
2026-04-14 00:01 52.20840 -175.31357 32085 ft 280 kts 83°
2026-04-14 00:01 52.21538 -175.28377 32363 ft 283 kts 82°
2026-04-14 00:02 52.22268 -175.25391 32647 ft 284 kts 82°
2026-04-14 00:02 52.22984 -175.22356 32828 ft 290 kts 82°
2026-04-14 00:02 52.23722 -175.19230 32908 ft 301 kts 81°
2026-04-14 00:02 52.24499 -175.15999 32945 ft 311 kts 81°
2026-04-14 00:03 52.26103 -175.09223 32970 ft 329 kts 80°
2026-04-14 00:03 52.27768 -175.02173 32949 ft 340 kts 79°
2026-04-14 00:04 52.29490 -174.94882 32979 ft 348 kts 79°
2026-04-14 00:04 52.31241 -174.87427 32983 ft 355 kts 78°
2026-04-14 00:05 52.33014 -174.79848 32985 ft 359 kts 78°
2026-04-14 00:05 52.34800 -174.72183 32985 ft 362 kts 78°
2026-04-14 00:06 52.36595 -174.64460 32979 ft 364 kts 78°
2026-04-14 00:06 52.38391 -174.56699 32999 ft 365 kts 78°
2026-04-14 00:07 52.40188 -174.48907 33020 ft 367 kts 78°
2026-04-14 00:07 52.41987 -174.41079 33019 ft 367 kts 78°
2026-04-14 00:08 52.43781 -174.33239 33029 ft 367 kts 78°
2026-04-14 00:08 52.45572 -174.25389 33027 ft 368 kts 78°
2026-04-14 00:09 52.47357 -174.17535 33027 ft 367 kts 79°
2026-04-14 00:09 52.49136 -174.09677 33023 ft 367 kts 79°
2026-04-14 00:10 52.50909 -174.01814 33018 ft 367 kts 79°
2026-04-14 00:10 52.52676 -173.93958 32981 ft 367 kts 78°
2026-04-14 00:11 52.54435 -173.86091 32986 ft 367 kts 78°
2026-04-14 00:11 52.56190 -173.78222 32998 ft 367 kts 78°
2026-04-14 00:12 52.57931 -173.70389 32999 ft 368 kts 78°
2026-04-14 00:12 52.59681 -173.62481 33005 ft 368 kts 78°
2026-04-14 00:13 52.61430 -173.54552 33005 ft 369 kts 78°
2026-04-14 00:13 52.63175 -173.46598 32968 ft 369 kts 78°
2026-04-14 00:14 52.64916 -173.38661 32995 ft 368 kts 78°
2026-04-14 00:14 52.66645 -173.30722 33012 ft 369 kts 78°
2026-04-14 00:15 52.68372 -173.22761 33007 ft 369 kts 78°
2026-04-14 00:15 52.70097 -173.14785 33018 ft 369 kts 78°
2026-04-14 00:16 52.71813 -173.06824 33018 ft 368 kts 78°
2026-04-14 00:16 52.73517 -172.98882 33013 ft 367 kts 78°
2026-04-14 00:17 52.75210 -172.90947 33005 ft 365 kts 77°
2026-04-14 00:17 52.76895 -172.83047 33014 ft 364 kts 77°
2026-04-14 00:18 52.78570 -172.75158 33017 ft 364 kts 77°
2026-04-14 00:18 52.80242 -172.67241 33026 ft 365 kts 77°
2026-04-14 00:19 52.81909 -172.59318 33027 ft 365 kts 77°
2026-04-14 00:19 52.83571 -172.51393 33027 ft 365 kts 77°
2026-04-14 00:20 52.85226 -172.43463 33030 ft 365 kts 77°
2026-04-14 00:20 52.86874 -172.35539 33023 ft 364 kts 76°
2026-04-14 00:21 52.88512 -172.27626 33037 ft 364 kts 76°
2026-04-14 00:21 52.90137 -172.19759 33033 ft 363 kts 76°
2026-04-14 00:22 52.91768 -172.11826 33035 ft 364 kts 77°
2026-04-14 00:22 52.93398 -172.03860 33041 ft 366 kts 77°
2026-04-14 00:23 52.95025 -171.95881 33044 ft 365 kts 77°
2026-04-14 00:23 52.96642 -171.87916 33046 ft 364 kts 77°
2026-04-14 00:24 52.98250 -171.79974 33050 ft 363 kts 75°
2026-04-14 00:24 52.99844 -171.72046 33050 ft 362 kts 76°
2026-04-14 00:25 53.01435 -171.64120 33058 ft 362 kts 76°
2026-04-14 00:25 53.03030 -171.56141 33056 ft 365 kts 76°
2026-04-14 00:26 53.04626 -171.48115 33053 ft 367 kts 76°
2026-04-14 00:26 53.06223 -171.40060 33064 ft 367 kts 76°
2026-04-14 00:27 53.07815 -171.31992 33036 ft 366 kts 75°
2026-04-14 00:27 53.09392 -171.23983 33059 ft 363 kts 75°
2026-04-14 00:28 53.10950 -171.16009 33071 ft 362 kts 75°
2026-04-14 00:28 53.12238 -171.09396 33069 ft 361 kts 75°
2026-04-14 00:29 53.13781 -171.01453 33070 ft 360 kts 75°
2026-04-14 00:29 53.15316 -170.93517 33078 ft 360 kts 76°
2026-04-14 00:30 53.17099 -170.84263 33081 ft 362 kts 75°
2026-04-14 00:30 53.18385 -170.77553 33074 ft 364 kts 76°
2026-04-14 00:31 53.19928 -170.69492 33079 ft 366 kts 75°
2026-04-14 00:31 53.21471 -170.61361 33081 ft 368 kts 75°
2026-04-14 00:32 53.23769 -170.49213 33091 ft 364 kts 75°
2026-04-14 00:33 53.25281 -170.41178 33093 ft 362 kts 75°
2026-04-14 00:33 53.26781 -170.33169 33086 ft 361 kts 75°
2026-04-14 00:34 53.28272 -170.25180 33092 ft 360 kts 75°
2026-04-14 00:34 53.29750 -170.17210 33086 ft 359 kts 74°
2026-04-14 00:35 53.31213 -170.09305 33098 ft 358 kts 74°
2026-04-14 00:35 53.32678 -170.01357 33098 ft 357 kts 75°
2026-04-14 00:36 53.34137 -169.93404 33104 ft 358 kts 74°
2026-04-14 00:36 53.35590 -169.85438 33109 ft 358 kts 74°
2026-04-14 00:37 53.37040 -169.77469 33107 ft 358 kts 74°
2026-04-14 00:37 53.38726 -169.68148 33105 ft 358 kts 75°
2026-04-14 00:38 53.39917 -169.61519 33106 ft 357 kts 73°
2026-04-14 00:38 53.41349 -169.53554 33114 ft 357 kts 74°
2026-04-14 00:39 53.42774 -169.45583 33113 ft 357 kts 74°
2026-04-14 00:39 53.44193 -169.37607 33114 ft 357 kts 74°
2026-04-14 00:40 53.45607 -169.29617 33110 ft 357 kts 74°
2026-04-14 00:40 53.47016 -169.21631 33109 ft 357 kts 74°
2026-04-14 00:41 53.48416 -169.13646 33122 ft 357 kts 74°
2026-04-14 00:41 53.49817 -169.05624 33125 ft 360 kts 74°
2026-04-14 00:42 53.51226 -168.97531 33131 ft 362 kts 75°
2026-04-14 00:42 53.52633 -168.89406 33126 ft 362 kts 75°
2026-04-14 00:43 53.54034 -168.81279 33122 ft 362 kts 75°
2026-04-14 00:43 53.54733 -168.77208 33011 ft 365 kts 75°
2026-04-14 00:43 53.55449 -168.73024 32386 ft 377 kts 74°
2026-04-14 00:43 53.56181 -168.68750 31782 ft 384 kts 74°
2026-04-14 00:44 53.56921 -168.64408 31192 ft 389 kts 74°
2026-04-14 00:44 53.57670 -168.60007 30612 ft 393 kts 74°
2026-04-14 00:44 53.58425 -168.55556 29997 ft 397 kts 74°
2026-04-14 00:44 53.59181 -168.51077 29348 ft 399 kts 73°
2026-04-14 00:45 53.59943 -168.46574 28684 ft 400 kts 73°
2026-04-14 00:45 53.60703 -168.42069 28048 ft 400 kts 73°
2026-04-14 00:45 53.61458 -168.37562 27426 ft 399 kts 73°
2026-04-14 00:45 53.62210 -168.33079 26818 ft 396 kts 73°
2026-04-14 00:46 53.62949 -168.28651 26231 ft 389 kts 73°
2026-04-14 00:46 53.63677 -168.24288 25642 ft 384 kts 73°
2026-04-14 00:46 53.64392 -168.19981 25078 ft 380 kts 73°
2026-04-14 00:46 53.65099 -168.15723 24518 ft 375 kts 73°
2026-04-14 00:47 53.65796 -168.11507 23982 ft 372 kts 73°
2026-04-14 00:47 53.66485 -168.07327 23393 ft 368 kts 73°
2026-04-14 00:47 53.67168 -168.03180 22746 ft 365 kts 73°
2026-04-14 00:47 53.67842 -167.99073 22112 ft 362 kts 73°
2026-04-14 00:48 53.68510 -167.94999 21484 ft 358 kts 73°
2026-04-14 00:48 53.69168 -167.90963 20878 ft 355 kts 73°
2026-04-14 00:48 53.69823 -167.86963 20284 ft 352 kts 73°
2026-04-14 00:48 53.70466 -167.83000 19712 ft 349 kts 73°
2026-04-14 00:49 53.71104 -167.79071 19144 ft 346 kts 73°
2026-04-14 00:49 53.71735 -167.75171 18584 ft 342 kts 73°
2026-04-14 00:49 53.72359 -167.71310 17955 ft 339 kts 73°
2026-04-14 00:49 53.72966 -167.67542 17291 ft 334 kts 73°
2026-04-14 00:50 53.73567 -167.63808 16590 ft 326 kts 73°
2026-04-14 00:50 53.74161 -167.60106 15906 ft 319 kts 73°
2026-04-14 00:50 53.74728 -167.56563 15246 ft 314 kts 73°
2026-04-14 00:50 53.75293 -167.53028 14592 ft 309 kts 73°
2026-04-14 00:51 53.75849 -167.49541 13950 ft 306 kts 73°
2026-04-14 00:51 53.76526 -167.46171 13233 ft 300 kts 65°
2026-04-14 00:51 53.77417 -167.43006 12530 ft 297 kts 60°
2026-04-14 00:51 53.78373 -167.39937 11843 ft 294 kts 59°
2026-04-14 00:52 53.79342 -167.36915 11172 ft 291 kts 58°
2026-04-14 00:52 53.80304 -167.33925 10516 ft 288 kts 58°
2026-04-14 00:52 53.81257 -167.30963 9843 ft 285 kts 58°
2026-04-14 00:52 53.82204 -167.28030 9124 ft 283 kts 58°
2026-04-14 00:53 53.83172 -167.25141 8447 ft 280 kts 54°
2026-04-14 00:53 53.84358 -167.22572 7761 ft 275 kts 45°
2026-04-14 00:53 53.85627 -167.20166 7091 ft 273 kts 44°
2026-04-14 00:53 53.86893 -167.17784 6418 ft 270 kts 45°
2026-04-14 00:54 53.88143 -167.15448 5708 ft 265 kts 45°
2026-04-14 00:54 53.89386 -167.13169 5016 ft 262 kts 45°
2026-04-14 00:54 53.90633 -167.10942 4302 ft 259 kts 45°
2026-04-14 00:54 53.91899 -167.08786 3598 ft 257 kts 45°
2026-04-14 00:55 53.93180 -167.06714 2987 ft 250 kts 45°
2026-04-14 00:55 53.94421 -167.04788 2687 ft 232 kts 46°
2026-04-14 00:55 53.95523 -167.02966 2566 ft 210 kts 50°
2026-04-14 00:55 53.96468 -167.01158 2507 ft 202 kts 57°
2026-04-14 00:56 53.97269 -166.99202 2482 ft 202 kts 63°
2026-04-14 00:56 53.98005 -166.97179 2469 ft 200 kts 65°
2026-04-14 00:56 53.98649 -166.95095 2462 ft 199 kts 69°
2026-04-14 00:56 53.99248 -166.92990 2459 ft 197 kts 70°
2026-04-14 00:57 53.99828 -166.90882 2462 ft 197 kts 71°
2026-04-14 00:57 54.00398 -166.88772 2457 ft 196 kts 71°
2026-04-14 00:57 54.00968 -166.86657 2400 ft 199 kts 71°
2026-04-14 00:57 54.01490 -166.84453 2242 ft 202 kts 78°
2026-04-14 00:58 54.01855 -166.82135 2109 ft 203 kts 82°
2026-04-14 00:58 54.02165 -166.79800 2044 ft 201 kts 83°
2026-04-14 00:58 54.02448 -166.77489 2015 ft 196 kts 84°
2026-04-14 00:58 54.02664 -166.75279 2002 ft 186 kts 86°
2026-04-14 00:59 54.02852 -166.73137 1996 ft 181 kts 87°
2026-04-14 00:59 54.03013 -166.71045 1986 ft 175 kts 89°
2026-04-14 00:59 54.03004 -166.69019 1990 ft 169 kts 99°
2026-04-14 00:59 54.02840 -166.67058 1991 ft 166 kts 107°
2026-04-14 01:00 54.02478 -166.65187 1991 ft 167 kts 118°
2026-04-14 01:00 54.01952 -166.63435 1994 ft 166 kts 125°
2026-04-14 01:00 54.01282 -166.61854 1996 ft 164 kts 134°
2026-04-14 01:00 54.00491 -166.60473 1998 ft 162 kts 145°
2026-04-14 01:01 53.99500 -166.59620 1999 ft 161 kts 164°
2026-04-14 01:01 53.98423 -166.59106 2000 ft 161 kts 168°
2026-04-14 01:01 53.97325 -166.58967 1869 ft 152 kts 184°
2026-04-14 01:01 53.96329 -166.58992 1831 ft 140 kts 176°
2026-04-14 01:02 53.95384 -166.58788 1803 ft 136 kts 173°
2026-04-14 01:02 53.94531 -166.58528 1646 ft 112 kts 169°
2026-04-14 01:02 53.93833 -166.58245 1475 ft 99 kts 167°
2026-04-14 01:02 53.93108 -166.57888 1218 ft 112 kts 163°
2026-04-14 01:03 53.92408 -166.57446 983 ft 103 kts 160°
2026-04-14 01:03 53.91771 -166.57018 744 ft 96 kts 156°
2026-04-14 01:03 53.91203 -166.56490 478 ft 92 kts 146°
2026-04-14 01:03 53.90711 -166.55843 239 ft 88 kts 138°
2026-04-14 01:04 53.90288 -166.55152 32 ft 80 kts 136°
2026-04-14 01:04 53.89932 -166.54563 16 ft 66 kts 136°
2026-04-14 01:04 53.89674 -166.54139 17 ft 26 kts 135°
2026-04-14 01:04 53.89608 -166.54049 17 ft 3 kts 177°
2026-04-14 01:05 53.89555 -166.54098 18 ft 6 kts 244°
2026-04-14 01:05 53.89554 -166.54210 17 ft 9 kts 272°
2026-04-14 01:05 53.89563 -166.54304 16 ft 2 kts
2026-04-14 01:05 53.89565 -166.54304 16 ft 0 kts